Schneifelwetter: Wetterstation Hallschlag, 537 m . NN
Wetterdaten: Montag, 13.06.2011
Datum Zeit Temp. A. Feuchte A. Luftdruck Regen Wind Richtung Richtung Sonnenschein Helligkeit T Regen Taupunkt Windchill
13.06.2011 00:01 10,7 C 70 % 1015 hPa 0,0 l/m 0,0 km/h (0 Bft) S 190 0 min 0 lux 0,00 min 5,5 C 10,7 C
13.06.2011 00:16 10,6 C 71 % 1016 hPa 0,0 l/m 0,0 km/h (0 Bft) S 190 0 min 0 lux 0,00 min 5,6 C 10,6 C
13.06.2011 00:31 10,5 C 72 % 1016 hPa 0,0 l/m 0,0 km/h (0 Bft) S 190 0 min 0 lux 0,00 min 5,7 C 10,5 C
13.06.2011 00:46 10,4 C 73 % 1016 hPa 0,0 l/m 0,0 km/h (0 Bft) S 190 0 min 0 lux 0,00 min 5,8 C 10,4 C
13.06.2011 01:01 10,6 C 72 % 1016 hPa 0,0 l/m 0,0 km/h (0 Bft) S 190 0 min 0 lux 0,00 min 5,8 C 10,6 C
13.06.2011 01:16 11,5 C 68 % 1016 hPa 0,0 l/m 0,0 km/h (0 Bft) SW22.5 225 0 min 0 lux 0,00 min 5,8 C 11,5 C
13.06.2011 01:31 11,9 C 67 % 1016 hPa 0,0 l/m 19,1 km/h (3 Bft) SW45 235 0 min 0 lux 0,00 min 6,0 C 6,0 C
13.06.2011 01:46 11,9 C 66 % 1015 hPa 0,0 l/m 12,5 km/h (3 Bft) S-SW22.5 205 0 min 0 lux 0,00 min 5,8 C 8,5 C
13.06.2011 02:01 11,9 C 65 % 1015 hPa 0,0 l/m 22,7 km/h (4 Bft) SW45 225 0 min 0 lux 0,00 min 5,5 C 5,0 C
13.06.2011 02:16 12,0 C 66 % 1015 hPa 0,0 l/m 18,4 km/h (3 Bft) W-SW45 240 0 min 0 lux 0,00 min 5,8 C 6,4 C
13.06.2011 02:31 11,8 C 67 % 1015 hPa 0,0 l/m 13,5 km/h (3 Bft) SW22.5 220 0 min 0 lux 0,00 min 5,9 C 7,9 C
13.06.2011 02:46 11,6 C 67 % 1015 hPa 0,0 l/m 18,1 km/h (3 Bft) S-SW22.5 205 0 min 0 lux 0,00 min 5,7 C 6,0 C
13.06.2011 03:01 11,5 C 68 % 1015 hPa 0,0 l/m 17,0 km/h (3 Bft) SW45 225 0 min 0 lux 0,00 min 5,8 C 6,2 C
13.06.2011 03:16 11,4 C 70 % 1015 hPa 0,0 l/m 16,0 km/h (3 Bft) SW45 225 0 min 0 lux 0,00 min 6,1 C 6,4 C
13.06.2011 03:31 11,0 C 72 % 1015 hPa 0,0 l/m 20,0 km/h (4 Bft) SW45 230 0 min 0 lux 0,00 min 6,2 C 4,6 C
13.06.2011 03:46 10,7 C 74 % 1015 hPa 0,0 l/m 20,1 km/h (4 Bft) SW45 225 0 min 0 lux 0,00 min 6,3 C 4,2 C
13.06.2011 04:01 10,5 C 75 % 1015 hPa 0,0 l/m 15,5 km/h (3 Bft) SW45 225 0 min 0 lux 0,00 min 6,3 C 5,5 C
13.06.2011 04:16 10,3 C 76 % 1015 hPa 0,0 l/m 14,8 km/h (3 Bft) SW22.5 230 0 min 0 lux 0,00 min 6,3 C 5,6 C
13.06.2011 04:31 10,2 C 77 % 1015 hPa 0,0 l/m 13,0 km/h (3 Bft) S-SW22.5 205 0 min 0 lux 0,00 min 6,4 C 6,3 C
13.06.2011 04:46 10,2 C 77 % 1015 hPa 0,0 l/m 17,5 km/h (3 Bft) SW45 230 0 min 0 lux 0,00 min 6,4 C 4,4 C
13.06.2011 05:01 10,1 C 78 % 1015 hPa 0,0 l/m 14,8 km/h (3 Bft) SW45 230 0 min 0 lux 0,00 min 6,4 C 5,3 C
13.06.2011 05:16 10,1 C 79 % 1015 hPa 0,0 l/m 16,9 km/h (3 Bft) SW67.5 225 0 min 73 lux 0,00 min 6,6 C 4,5 C
13.06.2011 05:31 10,1 C 79 % 1015 hPa 0,0 l/m 18,5 km/h (3 Bft) SW22.5 215 0 min 174 lux 0,00 min 6,6 C 3,9 C
13.06.2011 05:46 10,1 C 80 % 1015 hPa 0,0 l/m 20,8 km/h (4 Bft) S-SW45 210 0 min 463 lux 0,00 min 6,8 C 3,2 C
13.06.2011 06:01 10,2 C 82 % 1015 hPa 0,0 l/m 18,6 km/h (3 Bft) S-SW45 195 0 min 957 lux 0,00 min 7,3 C 4,0 C
13.06.2011 06:16 10,0 C 84 % 1015 hPa 0,0 l/m 19,8 km/h (3 Bft) S22.5 185 0 min 1,82 klux 0,00 min 7,4 C 3,4 C
13.06.2011 06:31 10,0 C 85 % 1015 hPa 0,0 l/m 17,5 km/h (3 Bft) S-SW22.5 200 0 min 2,31 klux 0,00 min 7,6 C 4,2 C
13.06.2011 06:46 10,0 C 86 % 1015 hPa 0,0 l/m 17,5 km/h (3 Bft) S-SW67.5 205 0 min 3,74 klux 0,00 min 7,8 C 4,2 C
13.06.2011 07:01 10,0 C 87 % 1015 hPa 0,0 l/m 22,8 km/h (4 Bft) SW45 215 0 min 4,86 klux 0,00 min 7,9 C 2,4 C
13.06.2011 07:16 10,1 C 87 % 1015 hPa 0,3 l/m 19,1 km/h (3 Bft) S-SW67.5 210 0 min 7,49 klux 15,00 min 8,0 C 3,7 C
13.06.2011 07:31 10,5 C 88 % 1015 hPa 0,0 l/m 16,3 km/h (3 Bft) SW45 215 0 min 10,3 klux 0,00 min 8,6 C 5,2 C
13.06.2011 07:46 10,6 C 88 % 1015 hPa 0,0 l/m 23,8 km/h (4 Bft) SW45 225 0 min 11,0 klux 0,00 min 8,7 C 3,0 C
13.06.2011 08:01 10,8 C 88 % 1015 hPa 0,0 l/m 25,3 km/h (4 Bft) SW45 220 0 min 11,6 klux 0,00 min 8,9 C 2,8 C
13.06.2011 08:16 11,0 C 87 % 1015 hPa 0,0 l/m 16,5 km/h (3 Bft) S-SW22.5 210 0 min 12,7 klux 0,00 min 8,9 C 5,8 C
13.06.2011 08:31 11,2 C 87 % 1015 hPa 0,0 l/m 21,0 km/h (4 Bft) SW45 235 0 min 14,7 klux 0,00 min 9,1 C 4,5 C
13.06.2011 08:46 11,5 C 87 % 1015 hPa 0,0 l/m 24,6 km/h (4 Bft) SW45 215 0 min 20,9 klux 0,00 min 9,4 C 4,0 C
13.06.2011 09:01 11,8 C 86 % 1015 hPa 0,0 l/m 27,6 km/h (4 Bft) SW22.5 220 0 min 17,1 klux 0,00 min 9,5 C 3,7 C
13.06.2011 09:16 11,6 C 86 % 1015 hPa 0,0 l/m 24,0 km/h (4 Bft) SW45 220 0 min 13,3 klux 0,00 min 9,3 C 4,2 C
13.06.2011 09:31 12,1 C 87 % 1015 hPa 0,0 l/m 19,1 km/h (3 Bft) SW45 230 0 min 41,0 klux 0,00 min 10,0 C 6,3 C
13.06.2011 09:46 13,3 C 83 % 1015 hPa 0,0 l/m 25,7 km/h (4 Bft) S-SW45 210 0 min 40,0 klux 0,00 min 10,5 C 6,2 C
13.06.2011 10:01 14,5 C 80 % 1015 hPa 0,0 l/m 27,8 km/h (4 Bft) W-SW67.5 240 0 min 46,7 klux 0,00 min 11,1 C 7,4 C
13.06.2011 10:16 15,0 C 78 % 1015 hPa 0,0 l/m 26,6 km/h (4 Bft) S-SW45 200 0 min 45,7 klux 0,00 min 11,2 C 8,3 C
13.06.2011 10:31 15,0 C 76 % 1015 hPa 0,0 l/m 30,2 km/h (5 Bft) W-SW45 250 0 min 32,2 klux 0,00 min 10,8 C 7,7 C
13.06.2011 10:46 13,8 C 78 % 1015 hPa 0,0 l/m 22,6 km/h (4 Bft) SW45 215 0 min 21,9 klux 0,00 min 10,0 C 7,5 C
13.06.2011 11:01 13,5 C 80 % 1015 hPa 0,0 l/m 19,6 km/h (3 Bft) SW45 225 0 min 17,7 klux 0,00 min 10,1 C 7,9 C
13.06.2011 11:16 13,5 C 81 % 1015 hPa 0,0 l/m 25,1 km/h (4 Bft) SW67.5 220 0 min 25,8 klux 0,00 min 10,3 C 6,6 C
13.06.2011 11:31 13,4 C 81 % 1015 hPa 0,0 l/m 24,0 km/h (4 Bft) SW45 230 0 min 19,0 klux 0,00 min 10,2 C 6,7 C
13.06.2011 11:46 13,7 C 81 % 1016 hPa 0,0 l/m 22,2 km/h (4 Bft) S-SW45 200 0 min 22,6 klux 0,00 min 10,5 C 7,5 C
13.06.2011 12:01 13,8 C 81 % 1015 hPa 0,0 l/m 17,2 km/h (3 Bft) SW45 230 0 min 20,0 klux 0,00 min 10,6 C 9,0 C
13.06.2011 12:16 14,4 C 80 % 1016 hPa 0,0 l/m 19,0 km/h (3 Bft) W-SW45 250 0 min 31,6 klux 0,00 min 11,0 C 9,2 C
13.06.2011 12:31 14,4 C 80 % 1016 hPa 0,0 l/m 24,3 km/h (4 Bft) S-SW45 210 0 min 22,3 klux 0,00 min 11,0 C 7,9 C
13.06.2011 12:46 14,6 C 80 % 1015 hPa 0,0 l/m 16,2 km/h (3 Bft) SW45 215 0 min 27,0 klux 0,00 min 11,2 C 10,3 C
13.06.2011 13:01 14,9 C 80 % 1015 hPa 0,0 l/m 25,0 km/h (4 Bft) W-SW67.5 240 0 min 26,3 klux 0,00 min 11,5 C 8,5 C
13.06.2011 13:16 15,0 C 79 % 1015 hPa 0,0 l/m 20,8 km/h (4 Bft) W-SW22.5 240 0 min 34,2 klux 0,00 min 11,4 C 9,5 C
13.06.2011 13:31 15,4 C 78 % 1015 hPa 0,0 l/m 24,8 km/h (4 Bft) SW67.5 215 0 min 34,6 klux 0,00 min 11,6 C 9,2 C
13.06.2011 13:46 15,4 C 77 % 1015 hPa 0,0 l/m 25,1 km/h (4 Bft) SW45 225 0 min 29,1 klux 0,00 min 11,4 C 9,1 C
13.06.2011 14:01 15,0 C 79 % 1015 hPa 0,0 l/m 22,1 km/h (4 Bft) W-SW67.5 250 0 min 19,6 klux 0,00 min 11,4 C 9,2 C
13.06.2011 14:16 15,1 C 79 % 1015 hPa 0,0 l/m 17,6 km/h (3 Bft) SW67.5 220 0 min 26,7 klux 0,00 min 11,5 C 10,5 C
13.06.2011 14:31 15,3 C 79 % 1015 hPa 0,0 l/m 16,9 km/h (3 Bft) S-SW45 200 0 min 31,7 klux 0,00 min 11,7 C 11,0 C
13.06.2011 14:46 15,5 C 78 % 1015 hPa 0,0 l/m 18,4 km/h (3 Bft) SW45 220 0 min 27,2 klux 0,00 min 11,7 C 10,8 C
13.06.2011 15:01 15,9 C 77 % 1015 hPa 0,0 l/m 19,0 km/h (3 Bft) S-SW45 200 0 min 55,4 klux 0,00 min 11,9 C 11,2 C
13.06.2011 15:17 17,0 C 75 % 1015 hPa 0,0 l/m 21,7 km/h (4 Bft) SW67.5 220 0 min 54,0 klux 0,00 min 12,5 C 12,0 C
13.06.2011 15:31 17,9 C 73 % 1015 hPa 0,0 l/m 23,3 km/h (4 Bft) SW67.5 220 14 min 118 klux 0,00 min 13,0 C 12,8 C
13.06.2011 15:46 17,6 C 73 % 1015 hPa 0,0 l/m 22,5 km/h (4 Bft) W-SW45 245 0 min 38,7 klux 0,00 min 12,7 C 12,6 C
13.06.2011 16:01 17,4 C 72 % 1015 hPa 0,0 l/m 26,1 km/h (4 Bft) W-SW45 250 0 min 36,0 klux 0,00 min 12,3 C 11,7 C
13.06.2011 16:16 17,7 C 72 % 1015 hPa 0,0 l/m 29,2 km/h (5 Bft) W-SW45 240 0 min 44,1 klux 0,00 min 12,6 C 11,6 C
13.06.2011 16:31 17,6 C 73 % 1015 hPa 0,0 l/m 27,6 km/h (4 Bft) SW67.5 220 0 min 31,3 klux 0,00 min 12,7 C 11,7 C
13.06.2011 16:46 17,1 C 73 % 1016 hPa 0,0 l/m 25,6 km/h (4 Bft) SW67.5 220 15 min 65,1 klux 0,00 min 12,2 C 11,3 C
13.06.2011 17:01 18,2 C 73 % 1015 hPa 0,0 l/m 21,5 km/h (4 Bft) W-SW22.5 255 15 min 89,3 klux 0,00 min 13,3 C 13,6 C
13.06.2011 17:16 17,8 C 71 % 1015 hPa 0,0 l/m 24,3 km/h (4 Bft) W-SW45 250 0 min 31,7 klux 0,00 min 12,5 C 12,5 C
13.06.2011 17:31 17,1 C 73 % 1016 hPa 0,0 l/m 22,8 km/h (4 Bft) W-SW45 245 0 min 21,1 klux 0,00 min 12,2 C 11,9 C
13.06.2011 17:46 17,0 C 75 % 1016 hPa 0,0 l/m 17,2 km/h (3 Bft) SW45 215 0 min 25,9 klux 0,00 min 12,5 C 13,0 C
13.06.2011 18:01 17,1 C 75 % 1016 hPa 0,0 l/m 19,1 km/h (3 Bft) W-SW45 255 0 min 16,6 klux 0,00 min 12,6 C 12,7 C
13.06.2011 18:16 16,3 C 77 % 1016 hPa 0,0 l/m 17,1 km/h (3 Bft) SW45 225 0 min 9,2 klux 0,00 min 12,3 C 12,2 C
13.06.2011 18:31 15,7 C 79 % 1016 hPa 0,0 l/m 20,2 km/h (4 Bft) SW45 235 0 min 11,9 klux 0,00 min 12,1 C 10,6 C
13.06.2011 18:46 15,8 C 81 % 1015 hPa 0,0 l/m 14,7 km/h (3 Bft) S-SW67.5 205 0 min 16,5 klux 0,00 min 12,5 C 12,3 C
13.06.2011 19:01 16,2 C 81 % 1015 hPa 0,0 l/m 8,0 km/h (2 Bft) S-SW 205 0 min 23,7 klux 0,00 min 12,9 C 15,4 C
13.06.2011 19:16 16,4 C 80 % 1015 hPa 0,0 l/m 11,3 km/h (2 Bft) S-SW22.5 195 0 min 20,0 klux 0,00 min 12,9 C 14,1 C
13.06.2011 19:31 16,1 C 80 % 1016 hPa 0,0 l/m 14,3 km/h (3 Bft) S-SW45 210 0 min 11,4 klux 0,00 min 12,6 C 12,7 C
13.06.2011 19:46 16,1 C 81 % 1016 hPa 0,0 l/m 12,0 km/h (2 Bft) SW45 220 0 min 8,62 klux 0,00 min 12,8 C 13,5 C
13.06.2011 20:01 16,0 C 80 % 1016 hPa 0,0 l/m 11,1 km/h (2 Bft) SW45 215 0 min 8,99 klux 0,00 min 12,5 C 13,8 C
13.06.2011 20:16 16,0 C 81 % 1015 hPa 0,0 l/m 9,9 km/h (2 Bft) S-SW22.5 200 0 min 13,5 klux 0,00 min 12,7 C 14,3 C
13.06.2011 20:31 15,9 C 80 % 1016 hPa 0,0 l/m 15,2 km/h (3 Bft) S22.5 185 0 min 9,6 klux 0,00 min 12,5 C 12,2 C
13.06.2011 20:46 15,6 C 81 % 1015 hPa 0,0 l/m 13,5 km/h (3 Bft) SW22.5 215 0 min 5,62 klux 0,00 min 12,3 C 12,4 C
13.06.2011 21:01 15,0 C 82 % 1016 hPa 0,0 l/m 6,7 km/h (2 Bft) SW 220 0 min 4,09 klux 0,00 min 12,0 C 14,8 C
13.06.2011 21:16 14,5 C 84 % 1016 hPa 0,0 l/m 10,7 km/h (2 Bft) S-SW22.5 195 0 min 2,45 klux 0,00 min 11,8 C 12,2 C
13.06.2011 21:31 14,4 C 85 % 1015 hPa 0,0 l/m 10,1 km/h (2 Bft) SW22.5 225 0 min 1,00 klux 0,00 min 11,9 C 12,4 C
13.06.2011 21:46 14,4 C 86 % 1016 hPa 0,0 l/m 14,1 km/h (3 Bft) S-SW22.5 210 0 min 566 lux 0,00 min 12,1 C 10,8 C
13.06.2011 22:01 14,4 C 86 % 1016 hPa 0,0 l/m 10,5 km/h (2 Bft) SW22.5 215 0 min 208 lux 0,00 min 12,1 C 12,2 C
13.06.2011 22:16 14,4 C 87 % 1016 hPa 0,0 l/m 15,2 km/h (3 Bft) SW22.5 220 0 min 41 lux 0,00 min 12,3 C 10,4 C
13.06.2011 22:31 14,4 C 87 % 1016 hPa 0,0 l/m 15,2 km/h (3 Bft) SW22.5 225 0 min 6 lux 0,00 min 12,3 C 10,4 C
13.06.2011 22:46 14,4 C 88 % 1016 hPa 0,0 l/m 11,0 km/h (2 Bft) S-SW22.5 205 0 min 0 lux 0,00 min 12,4 C 12,0 C
13.06.2011 23:01 14,4 C 88 % 1016 hPa 0,0 l/m 10,5 km/h (2 Bft) SW22.5 220 0 min 0 lux 0,00 min 12,4 C 12,2 C
13.06.2011 23:16 14,4 C 88 % 1016 hPa 0,0 l/m 16,2 km/h (3 Bft) SW45 225 0 min 0 lux 0,00 min 12,4 C 10,1 C
13.06.2011 23:31 14,4 C 88 % 1016 hPa 0,0 l/m 18,6 km/h (3 Bft) S-SW22.5 205 0 min 0 lux 0,00 min 12,4 C 9,4 C
13.06.2011 23:46 14,4 C 88 % 1016 hPa 0,0 l/m 21,7 km/h (4 Bft) S-SW45 210 0 min 0 lux 0,00 min 12,4 C 8,5 C
_ Min-Zeit 06:16 02:01 00:01 - 00:01 - - - - - 00:01 07:01
Minimum _ 10,0 C 65 % 1015 hPa - 0,0 km/h (0 Bft) - - - - - 5,5 C 2,4 C
_ Max-Zeit 17:01 07:31 00:16 07:16 10:31 - - 16:46 15:31 07:16 17:01 19:01
Maximum _ 18,2 C 88 % 1016 hPa 0,3 l/m 30,2 km/h
W-SW (5 Bft)
- - 15 min 118 klux 15,00 min 13,3 C 15,4 C
Durchschnitt _ 13,6 C 79 % 1015 hPa #0,3 l/m 17,7 km/h (3 Bft) SW - #44 min. 16,2 klux #15 min. 9,9 C 8,8 C